Back to catalog

FENGYUN 1C DEB

AlivePO
NORAD 30154·DEBRIS·🇨🇳 China

Launched May 10, 1999 from Taiyuan Satellite Launch Center

Loading…

Next Passes (next 24 hours)

TLE

FreshSource: Space-Track

Epoch: Sep 14, 2026, 00:25 UTC

1 30154U 99025TK  26257.01793274  .00001166  00000-0  90691-3 0  9995
2 30154  98.4310 277.0230 0180518 162.0031 228.5445 13.86827744987999

Track FENGYUN 1C DEB in real time with AllMySat

Download on the App Store